Theta_e
343 337 328 329 329 330 331 332 332 332 331 330 329 329 329 329 321 318 316 313 309 306 308 309 309 309 308 308 308 308 309 310 314 319 318 317 318 323 326 325 327 329 322
343 337 329 329 331 332 333 333 333 333 331 330 329 327 323 319 316 313 313 308 307 308 308 307 308 309 310 310 310 310 309 308 308 314 325 329 331 326 324 324 325 324 322
343 338 332 329 331 332 333 334 334 333 332 330 324 319 316 313 312 313 309 307 308 307 307 307 309 310 311 310 310 310 310 310 310 320 323 329 331 325 325 325 325 324 322
342 338 335 330 330 333 334 335 334 333 332 324 318 315 312 312 313 309 308 308 308 308 309 310 310 310 310 310 310 310 310 312 319 321 322 323 331 328 326 326 326 325 323
340 338 337 333 333 334 336 335 334 333 328 320 316 314 311 313 310 308 308 308 310 310 310 310 310 311 311 311 312 311 310 316 319 321 323 322 327 323 321 320 320 317 317
340 340 336 335 335 336 336 335 334 330 323 318 314 312 310 313 308 307 309 311 310 310 310 310 311 312 313 313 312 312 312 315 317 316 318 323 324 315 314 315 317 318 321
337 334 336 335 336 337 335 334 331 327 321 315 314 312 310 311 307 310 312 310 311 311 311 312 312 313 313 313 312 312 312 315 319 319 317 320 309 310 312 313 316 321 319
334 336 337 330 334 336 333 332 329 326 319 313 314 310 310 308 312 313 311 311 312 312 312 312 314 314 313 312 312 312 316 317 321 320 318 318 310 310 310 313 315 318 321
328 335 336 336 335 333 331 330 327 324 316 313 313 309 310 314 313 313 311 312 312 313 314 315 315 315 314 313 313 312 317 318 319 319 319 319 313 311 312 311 311 312 312
337 333 336 335 333 331 329 327 325 320 313 313 312 312 315 315 313 313 313 312 313 314 315 315 315 315 314 321 320 317 317 317 317 318 319 319 317 313 313 313 312 312 311
337 335 334 333 333 331 330 324 317 314 312 312 316 316 321 327 326 326 320 313 313 314 315 314 313 313 318 322 320 317 317 317 316 316 317 317 311 313 314 314 313 312 311
335 335 334 333 331 331 331 326 327 322 325 326 328 327 327 325 325 318 322 314 314 315 315 317 317 319 320 319 318 317 316 315 314 313 314 313 311 313 314 315 316 315 312
335 333 332 328 331 331 328 325 323 323 325 327 328 328 326 327 327 326 325 325 325 323 323 321 320 320 320 318 317 316 315 314 312 312 312 312 310 311 311 311 312 314 314
333 332 331 330 330 328 324 324 324 327 328 328 329 327 328 327 318 317 325 324 323 323 321 320 320 319 317 315 314 314 313 312 311 311 311 312 311 310 308 306 307 308 309
330 329 329 328 327 327 326 328 329 330 330 328 329 328 325 326 319 320 319 317 318 321 320 320 319 316 313 313 312 311 311 310 310 310 310 311 310 309 306 304 303 304 304
329 329 328 326 327 329 330 330 328 322 322 323 322 324 326 324 322 319 318 320 320 320 319 316 314 312 311 311 310 309 309 309 309 309 310 310 309 309 308 307 306 305 305
329 328 327 330 330 330 328 324 321 320 318 323 323 322 324 324 322 321 320 318 318 316 312 311 311 310 310 310 309 309 309 308 308 308 309 310 309 309 308 307 307 307 305
329 327 328 329 328 325 322 320 320 319 318 320 319 317 318 317 317 317 316 316 312 309 308 309 309 309 309 309 309 308 307 306 307 307 307 308 309 309 308 307 306 306 304
330 329 328 327 323 324 322 322 320 319 320 318 316 313 311 311 311 311 312 312 310 311 311 310 309 309 309 309 308 307 307 305 306 306 305 306 308 307 307 305 304 303 303
330 329 329 328 323 321 327 322 321 319 317 316 314 312 310 312 310 311 312 311 310 310 310 310 310 309 308 308 306 306 304 303 302 302 304 306 305 304 304 303 302 302 301
331 330 330 328 327 327 325 322 320 319 317 315 313 309 310 310 310 310 311 311 310 310 309 309 309 308 307 304 303 303 302 302 301 301 302 304 303 302 301 301 300 299 299
331 331 329 328 327 324 322 320 320 319 316 313 312 311 310 310 310 309 309 309 309 308 307 307 307 306 304 302 302 302 300 299 299 299 299 299 299 299 299 298 297 296 296
331 330 329 327 324 321 320 318 315 312 313 314 313 311 311 310 309 308 308 307 307 306 304 303 304 304 302 301 300 299 299 299 298 297 297 297 297 297 297 296 295 294 295
330 329 325 323 320 318 315 315 315 315 314 312 311 310 309 307 306 304 303 303 303 304 303 302 303 302 301 300 299 299 298 298 297 296 295 295 295 295 295 294 293 293 292
328 326 322 319 315 314 314 314 314 313 311 309 306 303 301 300 299 298 298 298 299 302 303 303 303 302 300 299 298 297 296 295 294 294 294 294 294 294 293 293 293 292 292
323 320 318 315 314 313 313 312 311 308 305 303 301 299 298 298 298 298 298 298 299 300 302 302 302 300 299 298 296 295 294 293 293 293 293 293 293 293 292 292 292 292 291
Wind_Speed
23 25 25 23 22 20 18 15 13 12 11 9 9 8 7 5 5 5 6 6 7 8 10 10 11 12 13 13 12 12 12 12 11 10 8 8 8 8 7 6 6 9 11
24 27 25 23 22 19 17 14 11 10 9 9 8 6 5 4 5 5 7 8 8 8 10 10 12 12 12 13 13 13 13 13 13 13 12 8 5 10 8 7 7 9 11
23 26 26 24 21 18 16 13 11 9 9 8 7 5 5 5 5 7 8 8 8 9 9 10 12 14 16 16 16 16 15 14 13 17 14 8 6 12 8 10 10 10 12
24 26 25 23 20 18 15 12 10 8 9 8 6 6 6 6 8 9 9 8 7 8 9 11 13 16 18 19 20 20 19 18 18 16 10 7 10 10 7 9 10 10 10
21 21 23 21 19 16 14 10 9 9 9 8 6 6 6 7 8 9 8 7 8 9 11 13 15 18 20 21 22 22 21 19 18 15 9 9 6 10 8 8 10 10 8
23 24 22 19 18 15 13 10 9 9 9 7 7 6 6 7 8 7 7 9 10 12 14 14 16 18 21 22 24 24 22 16 18 12 10 9 9 9 9 10 9 9 8
21 21 25 22 18 15 11 10 10 10 8 6 6 5 6 7 7 7 7 10 12 12 13 13 14 15 18 21 24 26 24 17 16 13 12 7 13 9 9 8 8 7 8
15 20 20 16 13 12 10 11 10 9 8 5 5 4 5 7 6 6 8 9 11 11 10 10 10 10 13 17 21 25 24 21 14 13 10 11 14 12 10 8 7 7 7
32 21 17 17 16 13 10 9 9 8 7 6 5 5 6 6 5 6 5 6 7 7 6 5 5 7 11 14 18 21 20 18 19 13 12 6 18 12 10 10 9 8 8
12 21 16 14 14 12 10 9 8 8 6 6 5 7 7 6 5 4 3 2 2 2 3 4 5 7 10 15 18 21 17 18 17 12 10 15 17 13 10 8 8 10 10
17 19 16 15 12 11 8 7 7 7 8 6 6 8 11 6 5 6 6 2 2 3 4 5 7 8 12 15 16 21 17 16 14 13 13 16 17 13 13 13 10 9 10
16 17 14 12 13 13 7 9 8 9 6 6 6 6 4 3 1 0 5 5 6 7 7 11 11 10 12 11 12 16 14 16 15 13 16 18 19 14 15 15 16 16 14
13 13 12 13 11 9 8 8 7 6 6 5 6 7 6 2 5 0 1 6 7 12 8 10 11 10 12 13 13 13 16 15 15 13 19 19 20 16 16 19 18 17 17
11 11 11 10 11 10 10 8 10 7 6 5 1 1 3 1 3 4 2 1 9 10 12 10 12 13 14 15 15 14 15 15 14 15 18 21 21 19 18 18 19 19 19
14 13 12 12 11 13 13 12 10 9 6 3 4 7 7 6 7 7 14 19 11 12 12 14 15 14 16 17 15 15 14 16 15 14 13 22 21 22 22 19 18 20 21
16 16 15 15 14 14 13 13 9 8 3 3 6 10 11 10 11 14 11 7 9 11 13 13 14 15 16 14 15 17 17 17 17 15 15 19 23 21 21 25 26 26 24
16 17 17 18 17 16 13 10 6 1 10 10 7 10 9 10 12 11 7 9 10 13 17 14 13 14 14 17 17 18 18 17 18 18 17 17 18 23 20 21 24 26 26
17 18 18 16 17 16 14 5 10 18 18 13 2 5 3 1 4 6 7 11 14 16 16 16 14 15 15 17 20 19 19 20 20 20 21 20 19 19 22 22 24 24 28
17 18 18 16 16 15 8 5 7 7 5 1 5 5 3 2 4 5 6 7 11 11 13 14 14 16 19 21 22 21 22 25 22 22 23 22 18 16 15 19 24 24 24
17 16 16 14 13 9 1 2 4 7 6 5 4 3 2 4 5 4 7 9 11 11 14 15 17 18 19 22 24 23 25 21 22 23 18 17 18 16 18 17 20 19 25
17 17 15 12 9 6 5 5 6 4 4 4 2 1 5 6 6 10 7 10 14 15 16 18 21 21 21 22 23 23 21 22 19 19 18 12 15 18 20 21 20 21 21
17 16 15 12 9 9 7 7 6 4 4 4 1 9 6 7 7 9 12 14 15 17 19 20 19 21 19 18 19 21 24 25 19 19 23 24 24 19 20 21 21 21 21
17 16 14 12 13 12 10 5 4 3 2 1 3 4 7 9 10 13 15 17 18 19 20 21 19 17 18 17 16 19 25 23 27 25 24 25 26 24 22 23 23 22 21
18 16 15 15 13 9 9 8 7 4 1 1 3 6 9 11 13 15 17 19 19 19 20 19 16 14 17 17 18 18 20 23 28 31 24 22 21 23 22 24 22 22 24
18 17 17 15 11 11 10 8 5 4 3 2 4 8 10 12 14 15 16 18 18 18 18 17 16 16 15 17 18 19 18 20 21 24 29 26 23 23 21 22 20 23 23
19 18 17 15 13 11 10 9 7 2 2 2 6 8 10 12 13 14 15 17 17 16 15 15 13 13 13 15 15 15 16 20 21 22 24 25 27 25 22 21 23 24 25
Wind_Direction
152 161 157 153 149 148 147 142 136 126 121 118 112 108 104 94 87 80 67 63 71 72 67 56 50 43 39 34 32 28 25 24 21 19 20 15 339 327 342 355 43 349 9
152 159 156 155 153 152 146 138 130 129 125 123 121 121 116 102 90 82 80 85 84 75 61 48 43 40 36 30 28 24 24 27 31 39 56 2 4 326 318 328 343 350 8
151 158 157 159 158 156 146 141 141 141 134 135 135 134 119 112 107 100 102 95 81 63 48 43 44 42 40 37 34 29 26 29 41 51 45 49 328 335 330 339 348 351 350
155 159 160 158 160 155 147 147 148 143 143 146 146 136 126 124 118 114 106 91 73 58 59 54 58 56 50 48 45 41 37 41 51 46 33 35 6 341 346 343 345 350 353
155 148 160 158 159 153 151 150 151 148 145 146 141 139 129 128 120 113 100 86 79 79 75 72 68 62 57 49 42 38 38 51 43 37 28 34 20 344 3 1 350 352 347
156 164 150 161 159 154 154 153 155 146 148 149 152 143 135 131 121 109 99 95 94 88 85 80 70 64 55 44 37 30 26 44 43 25 21 16 16 358 350 349 354 348 349
163 161 158 164 160 155 149 154 157 154 153 148 148 139 131 124 117 107 99 97 93 89 87 78 73 65 46 37 33 27 21 30 36 16 23 351 1 2 349 343 342 344 341
153 162 154 136 158 145 154 159 158 156 155 148 137 125 127 119 115 110 114 104 97 95 87 84 75 56 38 29 23 21 24 31 34 5 16 358 6 2 360 358 339 327 323
156 154 147 141 145 151 156 157 159 160 154 147 138 129 126 115 111 116 117 118 103 93 85 74 62 32 20 15 14 13 22 17 17 356 354 323 348 355 2 357 350 339 329
146 134 139 139 144 148 162 161 163 159 151 141 131 125 107 97 84 87 68 119 108 65 28 8 355 357 359 2 357 360 19 9 350 354 333 319 326 333 340 342 340 339 337
123 129 132 131 137 136 134 150 162 161 155 131 112 106 81 72 51 23 307 281 277 310 327 338 343 348 7 356 345 350 3 342 354 347 320 309 324 317 312 310 310 312 315
121 118 132 138 140 114 118 116 128 112 117 121 120 112 96 145 201 50 344 328 321 313 322 334 338 359 353 334 330 332 331 335 338 340 314 307 320 316 313 306 300 299 298
132 137 133 142 137 127 138 123 117 121 110 131 131 124 215 139 222 96 353 347 330 316 333 318 320 322 327 334 326 330 329 333 324 322 311 305 310 313 315 312 306 300 295
132 138 139 143 137 127 112 116 121 123 104 85 142 137 258 240 236 239 174 267 324 310 306 311 314 318 323 328 326 328 326 325 317 319 307 303 306 308 310 312 310 305 300
143 140 141 142 138 130 127 120 120 100 127 160 194 221 225 243 271 284 296 271 283 297 303 307 308 309 316 319 317 320 321 320 312 313 303 303 306 306 307 308 310 314 312
148 149 144 141 133 126 134 137 117 101 43 330 313 286 266 265 284 301 306 292 279 301 300 300 305 316 317 313 323 318 318 313 307 307 304 301 306 310 306 303 304 306 307
155 150 145 138 138 131 125 116 77 1 308 346 328 290 256 252 272 293 317 307 276 262 290 307 306 314 313 317 312 312 313 308 301 303 303 300 293 309 306 306 301 299 302
163 155 151 152 146 145 132 138 273 272 289 305 315 75 78 142 246 240 293 257 273 294 299 300 318 315 312 311 311 310 310 307 299 295 298 294 290 286 296 300 315 299 297
168 165 163 162 167 174 197 313 299 296 280 208 30 25 1 319 291 280 295 294 308 316 309 312 308 313 311 312 312 304 303 303 298 295 294 292 287 294 286 291 302 313 308
176 170 169 168 176 198 237 99 90 117 112 99 88 8 21 339 317 320 306 310 326 315 310 303 308 308 305 309 306 300 308 301 299 300 293 291 289 288 298 295 301 302 292
183 177 176 173 174 163 150 139 130 128 126 94 65 342 338 325 338 326 315 315 315 311 309 308 306 304 304 306 303 304 304 306 303 302 305 301 301 299 298 299 300 298 299
183 182 174 177 163 157 155 158 152 145 149 141 20 326 336 337 339 331 317 315 309 309 308 306 304 300 301 307 305 305 310 308 302 308 309 301 300 293 295 300 302 301 301
178 173 172 168 162 161 168 160 156 181 331 65 344 330 322 333 329 322 315 311 307 307 305 303 302 296 300 302 304 305 309 309 308 304 303 300 296 297 295 298 301 303 304
167 166 166 164 165 162 145 161 148 138 97 18 346 313 327 320 319 316 313 311 307 304 303 304 300 291 301 299 302 300 303 303 308 311 305 300 299 298 298 298 297 301 305
165 165 164 163 158 147 144 137 138 126 84 345 333 332 329 320 319 316 314 305 299 301 295 292 288 288 290 296 300 304 306 306 306 305 308 305 300 298 297 298 298 301 301
162 164 164 157 151 144 150 168 173 162 83 9 340 340 328 324 320 318 317 313 306 299 294 288 282 283 280 294 301 306 306 307 306 307 305 304 304 299 298 300 299 299 300